Location: Csohesd
(46.2500°N, 22.6167°E)
Time: 04:03:45
(UTC+00:00)

ATLAS 3B R/B - Pass Details

Date: 21 October 2021
Orbit: 989 x 1206 km, 63.8° (Epoch: 25 November)

Event Time Altitude Azimuth Distance (km) Brightness Sun altitude
Rises 16:22:15 0° 240° (WSW) 3,716 6.9 -9.3°
Reaches altitude 10° 16:24:55 10° 246° (WSW) 2,787 6.2 -9.7°
Maximum altitude 16:31:11 46° 319° (NW) 1,366 3.6 -10.8°
Drops below altitude 10° 16:37:48 10° 32° (NNE) 2,929 4.7 -12.0°
Enters shadow 16:40:32 - 39° (NE) 3,873 5.2 -12.4°
